{"data":{"norad_id":54658,"intl_designator":"2022-166S","name":"ONEWEB-0592","alt_names":[],"object_type":"PAYLOAD","status":"ACTIVE","operator":null,"country":"UK","launch_date":"2022-12-08","launch_site_code":"AFETR","launch_vehicle":null,"mission":null,"orbit_class":"UNKNOWN","rcs_meters":null,"size_class":null,"mass_kg":null,"dimensions":null,"purposes":["comms"],"wikipedia_slug":null,"has_3d_model":false,"image_url":null,"decayed_at":null,"tle_current":{"epoch":"2026-09-20T03:51:06.263424Z","epoch_age_seconds":51339,"freshness":"FRESH","line1":"1 54658U 22166S   26263.16048916  .00000100  00000+0  20976-3 0  9996","line2":"2 54658  87.9289 225.0661 0002054  79.7522 280.3844 13.21824370183987","mean_motion":13.2182437,"eccentricity":0.0002054,"inclination_deg":87.9289,"raan_deg":225.0661,"arg_perigee_deg":79.7522,"mean_anomaly_deg":280.3844,"bstar":0.00020976,"rev_number":18398,"period_min":108.94034280818,"perigee_km":1176.2075988771,"apogee_km":1179.3115611922,"semimajor_km":7555.8965800346,"source":"CELESTRAK","updated_at":"2026-09-20T09:00:44.744393Z"}}}